Location: Elche
(38.2500°N, 0.7000°W)
Time: 16:38:25
(UTC+01:00)

N. Korean satellite - Visible Passes

Search period start: 18 March 2019 00:00
Search period end: 28 March 2019 00:00
Orbit: 455 x 511 km, 97.2° (Epoch: 18 March)

Date Brightness Start Highest point End Pass type
(mag) Time Alt. Az. Time Alt. Az. Time Alt. Az.
20 Mar 9.4 06:32:46 10° NE 06:35:40 23° E 06:38:34 10° SSE visible
21 Mar 10.2 06:09:30 10° ENE 06:10:42 11° E 06:11:55 10° ESE visible
24 Mar 9.7 06:27:04 10° NE 06:29:47 20° E 06:32:31 10° SE visible
